Regional Weather Roundup
Issued by NWS Albany, NY

Home | Current Version | Previous Version | Graphics & Text | Print | Product List | Glossary On
Versions: 1 2 3 4 5 6 7 8 9 10 11 12 13 14 15 16 17 18 19 20 21 22 23 24 25 26 27 28 29 30 31 32 33 34 35 36 37 38 39 40 41 42 43 44 45 46 47 48 49 50
000
ASUS41 KALY 191710
RWRALY

NEW YORK STATE HOURLY WEATHER ROUNDUP
NATIONAL WEATHER SERVICE ALBANY NY
100 PM EDT TUE AUG 19 2014

NOTE: "FAIR" INDICATES FEW OR NO CLOUDS BELOW 12,000 FEET WITH NO
SIGNIFICANT WEATHER AND/OR NO OBSTRUCTIONS TO VISIBILITY.

NYZ032-033-038>043-046>054-057>066-NYZ062>081-191800-
EAST


CITY           SKY/WX    TMP DP  RH WIND       PRES   REMARKS
ALBANY         MOSUNNY   73  52  47 E7        29.94F
GLENS FALLS    SUNNY     71  51  49 CALM      29.93F
POUGHKEEPSIE   SUNNY     76  53  44 CALM      29.91F
NEWBURGH       SUNNY     75  55  50 VRB7      29.94F
MONTGOMERY     SUNNY     76  53  44 VRB3      29.92F
WHITE PLAINS   MOSUNNY   76  56  49 SE8       29.92F
ISLIP          MOSUNNY   76  62  62 SE7       29.91F
NEW YORK CITY  MOSUNNY   77  61  57 NE13      29.91F
CENTRAL PARK   SUNNY     81  59  47 VRB5      29.93F
$$

NYZ005>009-017-018-044>046-055-056-191800-
CENTRAL


CITY           SKY/WX    TMP DP  RH WIND       PRES   REMARKS
FULTON         SUNNY     72  53  51 VRB5      29.89F
SYRACUSE       MOSUNNY   75  58  55 CALM      29.89F
ROME           SUNNY     73  51  46 S6        29.92F
ELMIRA         MOSUNNY   77  63  61 E5        29.88F
BINGHAMTON     SUNNY     72  58  61 S5        29.94F
MONTICELLO     SUNNY     73  55  53 W5        29.96F
$$

NYZ026>034-041>043-191800-
NORTH


CITY           SKY/WX    TMP DP  RH WIND       PRES   REMARKS
WATERTOWN      SUNNY     73  49  42 VRB6      29.90F
FORT DRUM      NOT AVBL
MASSENA        SUNNY     72  50  45 CALM      29.94F
SARANAC LAKE   SUNNY     67  42  40 CALM      29.94F
PLATTSBURGH    SUNNY     68  51  54 SE7       29.94F
$$

NYZ001>004-010>016-019>021-191800-
WEST


CITY           SKY/WX    TMP DP  RH WIND       PRES   REMARKS
NIAGARA FALLS  PTSUNNY   74  60  61 W5        29.85F
BUFFALO        PTSUNNY   75  58  55 SW5       29.86F
DUNKIRK        SUNNY     71  63  75 W12       29.88S
JAMESTOWN      SUNNY     72  54  53 W7        29.91S
WELLSVILLE     MOSUNNY   75  62  64 SW3       29.93F
ROCHESTER      CLOUDY    75  62  64 E6        29.87S
PENN YAN       PTSUNNY   75  62  64 CALM      29.89F
$$

             KEY
       WCI = WIND CHILL INDEX
       VSB = VISIBILITY
       HX  = HEAT INDEX
$$


USA.gov is the U.S. government's official web portal to all federal, state and local government web resources and services.